{"data":{"norad_id":53924,"epoch":"2026-05-25T04:00:03.998880Z","epoch_age_seconds":60956,"freshness":"FRESH","line1":"1 53924U 22119AQ  26145.16671295  .00016571  00000+0  66048-3 0  9999","line2":"2 53924  53.2161 323.7992 0001603  83.4942 120.2617 15.25352790  5843","mean_motion":15.2535279,"eccentricity":0.0001603,"inclination_deg":53.2161,"raan_deg":323.7992,"arg_perigee_deg":83.4942,"mean_anomaly_deg":120.2617,"bstar":0.00066048,"rev_number":584,"period_min":94.404390213231,"perigee_km":488.62535895792,"apogee_km":490.82719592467,"semimajor_km":6867.8632774413,"source":"CELESTRAK","updated_at":"2026-05-25T13:38:17.613935Z"}}